FW7220 Weather Reports


time (UTC)temp
C
wind
direction
speed
KPH
gust
KPH
rain 1hr
cm
rain 24hr
cm
rain mn
cm
humidity
%
barometer
mb
20260509150546 24 0 0.0 0.0 0.00 0.00 0.00 91 1011.0
20260509150107 23 0 0.0 0.0 0.00 0.00 0.00 91 1010.9
20260509145547 23 0 0.0 0.0 0.00 0.00 0.00 91 1011.0
20260509145045 23 0 0.0 0.0 0.00 0.00 0.00 91 1010.9
20260509144601 23 0 0.0 0.0 0.00 0.00 0.00 91 1011.0
20260509144048 23 0 0.0 0.0 0.00 0.00 0.00 91 1011.0
20260509143547 23 0 0.0 0.0 0.00 0.00 0.00 91 1011.0
20260509143055 22 0 0.0 0.0 0.00 0.00 0.00 91 1011.1
20260509142546 22 0 0.0 0.0 0.00 0.00 0.00 91 1011.1
20260509142048 22 0 0.0 0.0 0.00 0.00 0.00 91 1011.2
20260509141559 22 0 0.0 0.0 0.00 0.00 0.00 91 1011.3
20260509141046 22 0 0.0 0.0 0.00 0.00 0.00 91 1011.3
20260509140547 22 0 0.0 0.0 0.00 0.00 0.00 91 1011.2
20260509140104 22 0 0.0 0.0 0.00 0.00 0.00 91 1011.3
20260509135548 22 0 0.0 0.0 0.00 0.00 0.00 91 1011.2
20260509135051 22 0 0.0 0.0 0.00 0.00 0.00 91 1011.2
20260509134558 22 0 0.0 0.0 0.00 0.00 0.00 91 1011.2
20260509134047 22 0 0.0 0.0 0.00 0.00 0.00 91 1011.2
20260509133547 22 0 0.0 0.0 0.00 0.00 0.00 91 1011.1
20260509133109 22 0 0.0 0.0 0.00 0.00 0.00 91 1010.9
20260509132547 22 0 0.0 0.0 0.00 0.00 0.00 91 1011.1
20260509132048 22 0 0.0 0.0 0.00 0.00 0.00 91 1011.2
20260509131601 22 0 0.0 0.0 0.00 0.00 0.00 91 1011.1
20260509131047 22 0 0.0 0.0 0.00 0.00 0.00 91 1011.1
20260509130544 22 0 0.0 0.0 0.00 0.00 0.00 91 1011.2
20260509130101 22 0 0.0 0.0 0.00 0.00 0.00 91 1011.4
20260509125546 22 0 0.0 0.0 0.00 0.00 0.00 91 1011.3
20260509125047 22 0 0.0 0.0 0.00 0.00 0.00 91 1011.3
20260509124601 21 0 0.0 0.0 0.00 0.00 0.00 90 1010.9
20260509124044 21 0 0.0 0.0 0.00 0.00 0.00 90 1010.7
20260509123548 21 0 0.0 0.0 0.00 0.00 0.00 90 1010.5
20260509123105 21 0 0.0 0.0 0.00 0.00 0.00 90 1010.4
20260509122547 21 0 0.0 0.0 0.00 0.00 0.00 90 1010.3
20260509122046 21 0 0.0 0.0 0.00 0.00 0.00 90 1010.4
20260509121603 21 0 0.0 0.0 0.00 0.00 0.00 90 1010.3
20260509121049 21 0 0.0 0.0 0.00 0.00 0.00 90 1010.1
20260509120547 21 0 0.0 3.2 0.00 0.00 0.00 90 1010.2
20260509120055 21 0 0.0 12.9 0.00 0.00 0.00 90 1009.9
20260509115549 21 0 0.0 12.9 0.00 0.00 0.00 90 1009.7
20260509115046 21 0 1.6 12.9 0.00 0.00 0.00 90 1009.4
20260509114600 21 276 1.6 11.3 0.00 0.00 0.00 90 1008.9
20260509114047 21 259 1.6 11.3 0.00 0.00 0.00 90 1008.8
20260509113550 21 0 0.0 6.4 0.00 0.00 0.00 90 1009.1
20260509113048 21 0 0.0 0.0 0.00 0.00 0.00 89 1009.5
20260509112546 21 0 0.0 0.0 0.00 0.00 0.00 89 1009.6
20260509112046 21 0 0.0 0.0 0.00 0.00 0.00 89 1009.6
20260509111551 21 0 0.0 1.6 0.00 0.00 0.00 89 1009.8
20260509111049 21 0 0.0 1.6 0.00 0.00 0.00 89 1009.7
20260509110547 21 245 0.0 0.0 0.00 0.00 0.00 89 1009.7
20260509110049 21 0 0.0 0.0 0.00 0.00 0.00 89 1009.9
20260509105545 21 0 0.0 3.2 0.00 0.00 0.00 89 1009.9
20260509105046 21 0 0.0 8.0 0.00 0.00 0.00 89 1009.7
20260509104551 21 0 0.0 8.0 0.00 0.00 0.00 89 1009.6
20260509104045 21 0 0.0 8.0 0.00 0.00 0.00 89 1009.3
20260509103546 21 0 0.0 0.0 0.00 0.00 0.00 88 1009.5
20260509103051 21 0 0.0 0.0 0.00 0.00 0.00 88 1009.6
20260509102547 21 0 0.0 0.0 0.00 0.00 0.00 88 1009.8
20260509102047 21 0 0.0 0.0 0.00 0.00 0.00 88 1009.9
20260509101550 21 0 0.0 0.0 0.00 0.00 0.00 88 1010.0
20260509101046 21 0 0.0 0.0 0.00 0.00 0.00 88 1010.1
20260509100548 21 0 0.0 0.0 0.00 0.00 0.00 88 1010.1
20260509100057 21 0 0.0 0.0 0.00 0.00 0.00 88 1010.3
20260509095547 21 0 0.0 0.0 0.00 0.00 0.00 88 1010.2
20260509095046 21 0 0.0 0.0 0.00 0.00 0.00 88 1010.2
20260509094552 21 0 0.0 0.0 0.00 0.00 0.00 88 1010.4
20260509094047 21 0 0.0 0.0 0.00 0.00 0.00 88 1010.2
20260509093545 21 0 0.0 0.0 0.00 0.00 0.00 88 1010.2
20260509093054 21 0 0.0 0.0 0.00 0.00 0.00 88 1010.4
20260509092545 21 0 0.0 0.0 0.00 0.00 0.00 88 1010.6
20260509092046 21 0 0.0 0.0 0.00 0.00 0.00 88 1010.7
20260509091558 21 0 0.0 0.0 0.00 0.00 0.00 88 1010.8
20260509091047 21 0 0.0 0.0 0.00 0.00 0.00 88 1010.7
20260509090547 21 0 0.0 0.0 0.00 0.00 0.00 88 1010.9
20260509090104 21 0 0.0 0.0 0.00 0.00 0.00 88 1010.9
20260509085550 21 0 0.0 0.0 0.00 0.00 0.00 88 1010.9
20260509085046 21 0 0.0 0.0 0.00 0.00 0.00 88 1010.6
20260509084553 21 0 0.0 0.0 0.00 0.00 0.00 88 1010.6
20260509084047 21 0 0.0 0.0 0.00 0.00 0.00 88 1010.7
20260509083545 21 0 0.0 0.0 0.00 0.00 0.00 88 1010.6
20260509083057 21 0 0.0 0.0 0.00 0.00 0.00 88 1010.8
20260509082545 21 0 0.0 0.0 0.00 0.00 0.00 88 1010.9
20260509082046 21 0 0.0 0.0 0.00 0.00 0.00 88 1010.9
20260509081552 21 0 0.0 0.0 0.00 0.00 0.00 88 1011.0
20260509081047 21 0 0.0 0.0 0.00 0.00 0.00 88 1011.2
20260509080546 21 0 0.0 0.0 0.00 0.00 0.00 88 1011.4
20260509080107 21 0 0.0 0.0 0.00 0.00 0.00 88 1011.3
20260509075548 21 0 0.0 0.0 0.00 0.00 0.00 88 1011.3
20260509075052 21 0 0.0 1.6 0.00 0.00 0.00 88 1011.3
20260509074551 21 0 0.0 1.6 0.00 0.00 0.00 88 1011.3
20260509074052 21 0 0.0 1.6 0.00 0.00 0.00 87 1011.4
20260509073546 21 0 0.0 0.0 0.00 0.00 0.00 87 1011.4
20260509073107 21 0 0.0 0.0 0.00 0.00 0.00 87 1011.4
20260509072547 21 0 0.0 0.0 0.00 0.00 0.00 87 1011.4
20260509072048 21 0 0.0 0.0 0.00 0.00 0.00 87 1011.3
20260509071558 21 0 0.0 0.0 0.00 0.00 0.00 87 1011.3
20260509071046 21 0 0.0 0.0 0.00 0.00 0.00 87 1010.9
20260509070546 21 0 0.0 0.0 0.00 0.00 0.00 87 1010.7
20260509070058 21 0 0.0 0.0 0.00 0.00 0.00 87 1010.6
20260509065545 21 0 0.0 0.0 0.00 0.00 0.00 87 1010.7
20260509065045 21 0 0.0 0.0 0.00 0.00 0.00 87 1010.9
20260509064551 21 0 0.0 0.0 0.00 0.00 0.00 87 1010.9
20260509064046 21 0 0.0 0.0 0.00 0.00 0.00 87 1011.1
20260509063546 21 0 0.0 0.0 0.00 0.00 0.00 87 1010.9
20260509063103 21 0 0.0 0.0 0.00 0.00 0.00 87 1011.2
20260509062547 21 0 0.0 0.0 0.00 0.00 0.00 87 1011.1
20260509062048 21 0 0.0 0.0 0.00 0.00 0.00 87 1011.3
20260509061556 21 0 0.0 0.0 0.00 0.00 0.00 87 1011.3
20260509061046 21 0 0.0 0.0 0.00 0.00 0.00 87 1011.2
20260509060548 21 0 0.0 0.0 0.00 0.00 0.00 87 1011.4
20260509060056 21 0 0.0 0.0 0.00 0.00 0.00 86 1011.4
20260509055547 21 0 0.0 0.0 0.00 0.00 0.00 86 1011.5
20260509055050 21 0 0.0 0.0 0.00 0.00 0.00 86 1011.5
20260509054552 21 0 0.0 0.0 0.00 0.00 0.00 86 1011.5
20260509054045 21 0 0.0 0.0 0.00 0.00 0.00 86 1011.6
20260509053544 21 0 0.0 0.0 0.00 0.00 0.00 86 1011.6
20260509053050 21 0 0.0 0.0 0.00 0.00 0.00 86 1011.4
20260509052546 21 0 0.0 0.0 0.00 0.00 0.00 86 1011.2
20260509052045 21 0 0.0 0.0 0.00 0.00 0.00 86 1011.2
20260509051553 21 0 0.0 0.0 0.00 0.00 0.00 86 1011.3
20260509051045 21 0 0.0 0.0 0.00 0.00 0.00 86 1011.1
20260509050548 21 0 0.0 0.0 0.00 0.00 0.00 86 1011.0
20260509045547 21 0 0.0 0.0 0.00 0.00 0.00 86 1010.9
20260509045046 21 0 0.0 0.0 0.00 0.00 0.00 86 1010.7
20260509044559 21 0 0.0 0.0 0.00 0.00 0.00 86 1010.7
20260509044046 21 0 0.0 0.0 0.00 0.00 0.00 86 1010.5
20260509043548 21 0 0.0 0.0 0.00 0.00 0.00 86 1010.4
20260509043102 21 0 0.0 0.0 0.00 0.00 0.00 86 1010.6
20260509042545 21 0 0.0 0.0 0.00 0.00 0.00 85 1010.6
20260509042046 21 0 0.0 0.0 0.00 0.00 0.00 85 1010.7
20260509041558 21 0 0.0 0.0 0.00 0.00 0.00 85 1010.6
20260509041046 21 0 0.0 0.0 0.00 0.00 0.00 85 1010.8
20260509040548 21 0 0.0 0.0 0.00 0.00 0.00 85 1010.9
20260509040055 21 0 0.0 0.0 0.00 0.00 0.00 84 1010.9
20260509035547 21 0 0.0 0.0 0.00 0.00 0.00 84 1010.9
20260509035045 21 0 0.0 0.0 0.00 0.00 0.00 84 1010.9
20260509034601 21 0 0.0 0.0 0.00 0.00 0.00 83 1010.7
20260509034046 21 0 0.0 0.0 0.00 0.00 0.00 83 1010.6
20260509033545 21 0 0.0 0.0 0.00 0.00 0.00 83 1010.6
20260509033104 21 0 0.0 0.0 0.00 0.00 0.00 83 1010.6
20260509032547 21 0 0.0 0.0 0.00 0.00 0.00 83 1010.4
20260509032046 21 0 0.0 0.0 0.00 0.00 0.00 83 1010.2
20260509031554 21 0 0.0 0.0 0.00 0.00 0.00 83 1010.3
20260509031046 21 0 0.0 0.0 0.00 0.00 0.00 82 1010.2
20260509030546 21 0 0.0 0.0 0.00 0.00 0.00 82 1010.1
20260509030054 21 0 0.0 0.0 0.00 0.00 0.00 82 1009.9
20260509025545 21 0 0.0 0.0 0.00 0.00 0.00 82 1009.9
20260509025045 21 0 0.0 0.0 0.00 0.00 0.00 82 1009.8
20260509024601 21 0 0.0 0.0 0.00 0.00 0.00 81 1009.9
20260509024045 21 0 0.0 0.0 0.00 0.00 0.00 81 1009.8
20260509023545 22 0 0.0 0.0 0.00 0.00 0.00 81 1009.7
20260509023052 22 0 0.0 0.0 0.00 0.00 0.00 81 1009.8
20260509022545 22 0 0.0 0.0 0.00 0.00 0.00 81 1009.7
20260509022045 22 0 0.0 0.0 0.00 0.00 0.00 81 1009.7
20260509021549 22 0 0.0 0.0 0.00 0.00 0.00 81 1009.5
20260509021049 22 0 0.0 0.0 0.00 0.00 0.00 80 1009.5
20260509020544 22 0 0.0 0.0 0.00 0.00 0.00 80 1009.4
20260509020051 22 0 0.0 0.0 0.00 0.00 0.00 80 1009.4
20260509015545 22 0 0.0 0.0 0.00 0.00 0.00 80 1009.2
20260509015118 22 0 0.0 0.0 0.00 0.00 0.00 80 1009.1
20260509014553 23 0 0.0 0.0 0.00 0.00 0.00 80 1009.0
20260509014047 23 0 0.0 0.0 0.00 0.00 0.00 79 1009.0
20260509013545 23 0 0.0 0.0 0.00 0.00 0.00 79 1009.0
20260509013059 23 0 0.0 0.0 0.00 0.00 0.00 79 1008.9
20260509012545 23 0 0.0 0.0 0.00 0.00 0.00 78 1008.8
20260509012045 23 0 0.0 0.0 0.00 0.00 0.00 78 1008.8
20260509011603 23 0 0.0 4.8 0.00 0.00 0.00 78 1008.9
20260509011045 23 0 0.0 4.8 0.00 0.00 0.00 78 1008.8
20260509010547 23 0 0.0 0.0 0.00 0.00 0.00 77 1008.8
20260509010056 24 0 0.0 0.0 0.00 0.00 0.00 77 1008.8
20260509005545 24 0 0.0 0.0 0.00 0.00 0.00 76 1008.8
20260509005043 24 0 0.0 1.6 0.00 0.00 0.00 76 1008.5
20260509004559 25 0 0.0 9.7 0.00 0.00 0.00 75 1008.6
20260509004046 25 0 0.0 9.7 0.00 0.00 0.00 75 1008.5
20260509003546 25 0 0.0 9.7 0.00 0.00 0.00 74 1008.3
20260509003059 25 224 0.0 6.4 0.00 0.00 0.00 74 1008.6
20260509002549 25 236 0.0 8.0 0.00 0.00 0.00 73 1008.8
20260509002045 25 0 0.0 8.0 0.00 0.00 0.00 73 1008.9
20260509001600 25 0 0.0 8.0 0.00 0.00 0.00 73 1008.9
20260509001046 26 0 0.0 8.0 0.00 0.00 0.00 72 1008.9
20260509000546 26 275 0.0 11.3 0.00 0.00 0.00 72 1008.8
20260509000053 26 0 1.6 11.3 0.00 0.00 0.00 72 1008.8
20260508235546 26 0 0.0 11.3 0.00 0.00 0.00 71 1009.0
20260508235046 26 0 0.0 6.4 0.00 0.00 0.00 71 1009.2
20260508234551 26 0 0.0 6.4 0.00 0.00 0.00 71 1009.3
20260508234048 26 243 0.0 3.2 0.00 0.00 0.00 70 1009.3
20260508233544 26 0 0.0 0.0 0.00 0.00 0.00 70 1009.4
20260508233054 26 0 0.0 0.0 0.00 0.00 0.00 70 1009.4
20260508232543 26 0 0.0 4.8 0.00 0.00 0.00 70 1009.4
20260508232047 26 0 0.0 4.8 0.00 0.00 0.00 70 1009.4
20260508231555 26 0 0.0 8.0 0.00 0.00 0.00 70 1009.3
20260508231047 26 0 0.0 8.0 0.00 0.00 0.00 70 1009.3
20260508230546 26 262 0.0 6.4 0.00 0.00 0.00 70 1009.4
20260508230053 26 0 0.0 4.8 0.00 0.00 0.00 71 1009.4
20260508225547 26 0 0.0 4.8 0.00 0.00 0.00 71 1009.4
20260508225047 26 0 0.0 0.0 0.00 0.00 0.00 71 1009.5
20260508224608 26 0 0.0 6.4 0.00 0.00 0.00 72 1009.6
20260508224047 26 0 0.0 6.4 0.00 0.00 0.00 72 1009.6
20260508223547 26 0 0.0 4.8 0.00 0.00 0.00 72 1009.6
20260508223051 26 0 0.0 4.8 0.00 0.00 0.00 73 1009.8
20260508222547 25 0 0.0 4.8 0.00 0.00 0.00 72 1009.7
20260508222043 25 0 0.0 0.0 0.00 0.00 0.00 74 1009.6
20260508221602 25 0 0.0 0.0 0.00 0.00 0.00 73 1009.7
20260508221047 25 0 0.0 0.0 0.00 0.00 0.00 73 1009.9
20260508220546 25 0 0.0 0.0 0.00 0.00 0.00 72 1010.0
20260508220051 25 0 0.0 0.0 0.00 0.00 0.00 72 1010.2
20260508215547 25 0 0.0 0.0 0.00 0.00 0.00 73 1010.3
20260508215047 25 0 0.0 0.0 0.00 0.00 0.00 72 1010.3
20260508214551 25 0 0.0 0.0 0.00 0.00 0.00 72 1010.4
20260508214049 26 0 0.0 0.0 0.00 0.00 0.00 71 1010.5
20260508213546 26 0 0.0 0.0 0.00 0.00 0.00 70 1010.6
20260508213049 26 0 0.0 0.0 0.00 0.00 0.00 69 1010.6
20260508212547 26 0 0.0 0.0 0.00 0.00 0.00 68 1010.7
20260508212047 26 0 0.0 0.0 0.00 0.00 0.00 67 1010.7
20260508211554 26 0 0.0 0.0 0.00 0.00 0.00 67 1010.7
20260508211046 26 0 0.0 0.0 0.00 0.00 0.00 67 1010.8
20260508210544 27 0 0.0 0.0 0.00 0.00 0.00 68 1010.7
20260508210056 27 0 0.0 0.0 0.00 0.00 0.00 67 1010.8
20260508205543 27 0 0.0 0.0 0.00 0.00 0.00 67 1010.7
20260508205044 27 0 0.0 0.0 0.00 0.00 0.00 67 1010.8
20260508204553 27 0 0.0 0.0 0.00 0.00 0.00 66 1010.8
20260508204043 27 0 0.0 0.0 0.00 0.00 0.00 68 1010.7
20260508203545 26 0 0.0 0.0 0.00 0.00 0.00 67 1010.8
20260508203100 26 0 0.0 0.0 0.00 0.00 0.00 67 1010.7
20260508202545 26 0 0.0 0.0 0.00 0.00 0.00 67 1010.6
20260508202045 26 0 0.0 0.0 0.00 0.00 0.00 67 1010.6
20260508201554 26 0 0.0 0.0 0.00 0.00 0.00 68 1010.8
20260508201045 26 0 0.0 0.0 0.00 0.00 0.00 69 1010.8
20260508200549 25 0 0.0 0.0 0.00 0.00 0.00 69 1010.9
20260508200106 25 0 0.0 0.0 0.00 0.00 0.00 70 1011.0
20260508195546 25 0 0.0 0.0 0.00 0.00 0.00 69 1011.1
20260508195046 25 0 0.0 0.0 0.00 0.00 0.00 70 1011.1
20260508194549 25 0 0.0 0.0 0.00 0.00 0.00 70 1011.2
20260508194045 25 0 0.0 0.0 0.00 0.00 0.00 70 1011.3
20260508193545 25 0 0.0 0.0 0.00 0.00 0.00 70 1011.5
20260508193059 25 0 0.0 0.0 0.00 0.00 0.00 69 1011.6
20260508192546 24 0 0.0 0.0 0.00 0.00 0.00 70 1011.7
20260508192046 24 0 0.0 0.0 0.00 0.00 0.00 70 1011.8
20260508191554 24 0 0.0 0.0 0.00 0.00 0.00 70 1011.8
20260508191045 24 0 0.0 0.0 0.00 0.00 0.00 70 1011.9
20260508190545 24 0 0.0 0.0 0.00 0.00 0.00 71 1011.8
20260508190052 23 0 0.0 0.0 0.00 0.00 0.00 70 1011.9
20260508185542 23 0 0.0 0.0 0.00 0.00 0.00 70 1012.1
20260508185042 23 0 0.0 0.0 0.00 0.00 0.00 70 1012.0
20260508184555 23 0 0.0 0.0 0.00 0.00 0.00 70 1012.1
20260508184047 23 0 0.0 0.0 0.00 0.00 0.00 70 1012.2
20260508183545 23 0 0.0 0.0 0.00 0.00 0.00 70 1012.2
20260508183113 23 0 0.0 0.0 0.00 0.00 0.00 71 1012.2
20260508182543 23 0 0.0 0.0 0.00 0.00 0.00 70 1012.3
20260508182048 23 0 0.0 0.0 0.00 0.00 0.00 71 1012.5
20260508181609 23 0 0.0 9.7 0.00 0.00 0.00 71 1012.7
20260508181044 23 0 0.0 9.7 0.00 0.00 0.00 71 1012.6
20260508180547 23 250 0.0 9.7 0.00 0.00 0.00 72 1012.6
20260508180051 23 0 0.0 0.0 0.00 0.00 0.00 73 1012.7
20260508175544 23 0 0.0 0.0 0.00 0.00 0.00 73 1013.0
20260508175049 22 0 0.0 0.0 0.00 0.00 0.00 74 1013.0
20260508174554 22 0 0.0 0.0 0.00 0.00 0.00 74 1013.2
20260508174046 22 0 0.0 0.0 0.00 0.00 0.00 75 1013.2
20260508173545 22 0 0.0 0.0 0.00 0.00 0.00 77 1013.2
20260508173103 21 0 0.0 4.8 0.00 0.00 0.00 78 1013.2
20260508172546 21 0 0.0 4.8 0.00 0.00 0.00 78 1013.3
20260508172048 21 0 0.0 4.8 0.00 0.00 0.00 78 1013.5
20260508171555 21 0 0.0 3.2 0.00 0.00 0.00 78 1013.9
20260508171044 21 0 0.0 3.2 0.00 0.00 0.00 78 1013.9
20260508170545 21 0 0.0 1.6 0.00 0.00 0.00 78 1014.0
20260508170051 20 0 0.0 0.0 0.00 0.00 0.00 78 1014.0
20260508165545 20 0 0.0 0.0 0.00 0.00 0.00 79 1014.0
20260508165044 20 0 0.0 0.0 0.00 0.00 0.00 79 1014.1
20260508164552 20 0 0.0 0.0 0.00 0.00 0.00 79 1014.3
20260508164045 20 0 0.0 0.0 0.00 0.00 0.00 79 1014.4
20260508163546 20 0 0.0 3.2 0.00 0.00 0.00 79 1014.3
20260508163050 20 0 0.0 3.2 0.00 0.00 0.00 79 1014.3
20260508162546 20 0 0.0 3.2 0.00 0.00 0.00 80 1014.3
20260508162046 20 0 0.0 4.8 0.00 0.00 0.00 80 1014.3
20260508161552 20 0 0.0 4.8 0.00 0.00 0.00 80 1014.4
20260508161045 20 0 0.0 0.0 0.00 0.00 0.00 81 1014.5
20260508160545 20 0 0.0 0.0 0.00 0.00 0.00 81 1014.6
20260508160100 20 0 0.0 0.0 0.00 0.00 0.00 81 1014.7
20260508155544 20 0 0.0 0.0 0.00 0.00 0.00 82 1014.9
20260508155045 19 0 0.0 0.0 0.00 0.00 0.00 83 1015.0
20260508154550 19 0 0.0 0.0 0.00 0.00 0.00 83 1015.1
20260508154045 19 0 0.0 0.0 0.00 0.00 0.00 83 1015.0
20260508153548 19 0 0.0 0.0 0.00 0.00 0.00 83 1014.8
20260508153051 19 0 0.0 0.0 0.00 0.00 0.00 83 1014.6
20260508152548 18 0 0.0 0.0 0.00 0.00 0.00 84 1014.8
20260508152044 18 0 0.0 0.0 0.00 0.00 0.00 84 1015.0
20260508151553 18 0 0.0 0.0 0.00 0.00 0.00 84 1014.9
20260508151047 18 0 0.0 0.0 0.00 0.00 0.00 85 1014.7